Regional Weather Roundup
Issued by NWS Huntsville, AL

Home | Current Version | Previous Version | Text Only | Print | Product List | Glossary On
Versions: 1 2 3 4 5 6 7 8 9 10 11 12 13 14 15 16 17 18 19 20 21 22 23 24 25 26 27 28 29 30 31 32 33 34 35 36 37 38 39 40 41 42 43 44 45 46 47 48 49 50
000
ASUS44 KHUN 302110
RWRHUN

WEATHER ROUNDUP FOR THE TENNESSEE VALLEY
NATIONAL WEATHER SERVICE HUNTSVILLE AL
400 PM CDT SAT MAY 30 2015

ALZ001>004-302200-
NORTHWEST ALABAMA

CITY           SKY/WX    TMP DP  RH WIND       PRES   REMARKS
RUSSELLVILLE     N/A     75 N/A N/A MISG        N/A
SHOALS AIRPORT LGT RAIN  79  66  64 S16       30.05S
SHOALS TVA RES   N/A     81 N/A N/A MISG        N/A
$$

ALZ005>007-016-302200-
NORTH CENTRAL ALABAMA

CITY           SKY/WX    TMP DP  RH WIND       PRES   REMARKS
CULLMAN AG STN   N/A     81 N/A N/A S6          N/A
DECATUR AP     MOSUNNY   85  65  51 S12       30.04F
HUNTSVILLE AP  PTSUNNY   85  65  51 SW12      30.04F
HUN NWS/UAH      N/A     83  62  49 S10         N/A
MERIDIANVILLE  LGT RAIN  79  61  53 S6        30.06R
REDSTONE ARSN  MOSUNNY   83  67  58 S8        30.04F
VINEMONT AP    LGT RAIN  82  65  56 SE7       30.09F
$$

ALZ008>010-302200-
NORTHEAST ALABAMA

CITY           SKY/WX    TMP DP  RH WIND       PRES   REMARKS
ALBERTVILLE    MOSUNNY   82  70  65 S6        30.07S
FORT PAYNE     SUNNY     82  57  42 S7        30.07F
SCOTTSBORO HCN   N/A     84 N/A N/A MISG        N/A
VALLEY HEAD      N/A     82 N/A N/A MISG        N/A
$$

TNZ076-096-097-302200-
SOUTHEASTERN MIDDLE TENNESSEE

CITY           SKY/WX    TMP DP  RH WIND       PRES   REMARKS
TULLAHOMA      SUNNY     79  66  65 W5        30.08F
WINCHESTER     SUNNY     84  61  45 S13       30.06F
$$

...SURROUNDING SITES...

CITY           SKY/WX    TMP DP  RH WIND       PRES   REMARKS
ATLANTA        MOSUNNY   85  62  46 SE12G17   30.09F
ANNISTON       MOSUNNY   86  62  44 VRB6      30.06F
BIRMINGHAM     PTSUNNY   83  67  58 SE7       30.08F
CHATTANOOGA    MOSUNNY   84  62  47 S12       30.07F
CORINTH        FAIR      82  68  61 S14       30.00F
DALTON         PTSUNNY   84  63  48 SE12      30.08F
GADSDEN        MOSUNNY  N/A N/A N/A S8        30.05F
GOLDEN TRNGL   PTSUNNY   82  66  57 S6        30.02F
HALEYVILLE     FAIR      82  67  60 S5        30.08F
JACKSON TN     TSTM      70  65  84 CALM      29.99R VSB 1/2
LEWISBURG      FAIR      81  67  62 S10       30.03F
MEMPHIS        PTSUNNY   83  67  58 W12       29.99S
NASHVILLE      PTSUNNY   78  70  76 S10       30.03F
OXFORD MS      CLOUDY    68  63  83 SW9G25    30.04R THUNDER
ROME           MOSUNNY   85  61  44 S10       30.06F
SAVANNAH       SUNNY     79  32  18 S6        30.01F
TUPELO         PTSUNNY   75  65  70 S10       30.03F
TUSCALOOSA     MOSUNNY   88  64  44 S12       30.03F
$$

...GULF COAST WEATHER...

CITY           SKY/WX    TMP DP  RH WIND       PRES   REMARKS
GULFPORT       MOSUNNY   83  66  56 SE10      30.02F
PASCAGOULA     MOSUNNY   84  67  56 SE12      30.04S
MOBILE         MOSUNNY   84  66  54 S13       30.04F
GULF SHORES    CLEAR     83  71  66 SE7       30.04F
PENSACOLA      MOSUNNY   84  72  67 S10       30.04F
DESTIN         SUNNY     84  73  69 S8        30.04F HX  90
PANAMA CITY    MOSUNNY   84  72  67 SW10      30.04F HX  90
APPALACHICOLA  SUNNY     87  69  54 S13       30.04F HX  91
$$




USA.gov is the U.S. government's official web portal to all federal, state and local government web resources and services.